Cumberland, WV

1:53 PM EDT on September 20, 2017 (GMT -0400)
Greater Cumberland Regional

Weather History for KCBE - March, 2014

Change the Weather History Date:

Tuesday, March 11, 2014

  Actual Average (KMRB) Record (KMRB)
Temperature  
Mean Temperature 62 °F -  
Max Temperature 73 °F 52 °F 75 °F (1967)
Min Temperature 50 °F 29 °F -1 °F (1960)
Degree Days  
Heating Degree Days 4    
Growing Degree Days 12 (Base 50)    
Moisture  
Dew Point 35 °F    
Average Humidity 38    
Maximum Humidity 62    
Minimum Humidity 23    
Precipitation  
Precipitation 0.00 in - - ()
Sea Level Pressure  
Sea Level Pressure 29.70 in    
Wind  
Wind Speed 7 mph (WSW)    
Max Wind Speed 14 mph    
Max Gust Speed 33 mph    
Visibility 10 miles    
Events      
Averages and records for this station are not official NWS values.
T = Trace of Precipitation, MM = Missing Value Source: NWS Daily Summary

Daily Weather History Graph

Daily Weather History Graph

Search for Another Location

Airport or City:

Trip Planner

Search our weather history database for the weather conditions in past years. The results will help you decide how hot, cold, wet, or windy it might be!

Date:

Astronomy

Mar. 11, 2014 Rise Set
Actual Time 7:32 AM EDT 7:17 PM EDT
Civil Twilight 7:05 AM EDT 7:44 PM EDT
Nautical Twilight 6:34 AM EDT 8:15 PM EDT
Astronomical Twilight 6:03 AM EDT 8:47 PM EDT
Moon 2:53 PM EDT (3/11) 4:24 AM EDT (3/11)
Length of Visible Light 12h 38m
Length of Day
11h 45m
Waxing Gibbous, 78% of the Moon is Illuminated
Mar 11
Waxing Gibbous
Mar 16
Full
Mar 23
Last Quarter
Mar 30
New
Apr 7
First Quarter

Hourly Weather History & Observations

Time (EDT) Temp. Dew Point Humidity Pressure Visibility Wind Dir Wind Speed Gust Speed Precip Events Conditions
12:12 AM 60.8 °F 32.0 °F 34% 29.70 in 10.0 mi West 8.1 mph 23.0 mph N/A   Clear
12:33 AM 60.8 °F 32.0 °F 34% 29.70 in 10.0 mi WNW 10.4 mph 19.6 mph N/A   Clear
12:53 AM 60.8 °F 32.0 °F 34% 29.70 in 10.0 mi SW 13.8 mph 24.2 mph N/A   Clear
1:13 AM 60.8 °F 32.0 °F 34% 29.70 in 10.0 mi SW 12.7 mph 25.3 mph N/A   Clear
1:33 AM 60.8 °F 32.0 °F 34% 29.70 in 10.0 mi West 11.5 mph 33.4 mph N/A   Clear
1:53 AM 60.8 °F 32.0 °F 34% 29.70 in 10.0 mi West 9.2 mph 28.8 mph N/A   Clear
2:13 AM 59.0 °F 32.0 °F 36% 29.70 in 10.0 mi WSW 12.7 mph 26.5 mph N/A   Clear
2:33 AM 59.0 °F 32.0 °F 36% 29.70 in 10.0 mi WSW 11.5 mph 24.2 mph N/A   Clear
2:53 AM 59.0 °F 32.0 °F 36% 29.71 in 10.0 mi WSW 10.4 mph 20.7 mph N/A   Clear
3:13 AM 59.0 °F 32.0 °F 36% 29.71 in 10.0 mi WSW 9.2 mph - N/A   Clear
3:33 AM 59.0 °F 32.0 °F 36% 29.70 in 10.0 mi WSW 9.2 mph 21.9 mph N/A   Clear
3:53 AM 59.0 °F 32.0 °F 36% 29.70 in 10.0 mi SW 9.2 mph 16.1 mph N/A   Clear
4:13 AM 57.2 °F 32.0 °F 38% 29.71 in 10.0 mi West 4.6 mph - N/A   Clear
4:33 AM 57.2 °F 32.0 °F 38% 29.71 in 10.0 mi South 5.8 mph - N/A   Clear
4:53 AM 53.6 °F 33.8 °F 47% 29.72 in 10.0 mi SSW 6.9 mph - N/A   Clear
5:13 AM 53.6 °F 33.8 °F 47% 29.72 in 10.0 mi SSW 4.6 mph - N/A   Clear
5:33 AM 55.4 °F 33.8 °F 44% 29.73 in 10.0 mi SSW 3.5 mph - N/A   Clear
5:53 AM 53.6 °F 33.8 °F 47% 29.73 in 10.0 mi South 5.8 mph - N/A   Clear
6:13 AM 53.6 °F 33.8 °F 47% 29.73 in 10.0 mi SSW 4.6 mph - N/A   Clear
6:33 AM 53.6 °F 33.8 °F 47% 29.73 in 10.0 mi South 3.5 mph - N/A   Clear
6:53 AM 53.6 °F 33.8 °F 47% 29.74 in 10.0 mi SSW 5.8 mph - N/A   Clear
7:13 AM 51.8 °F 33.8 °F 50% 29.74 in 10.0 mi South 8.1 mph - N/A   Clear
7:33 AM 51.8 °F 33.8 °F 50% 29.75 in 10.0 mi South 5.8 mph - N/A   Clear
7:53 AM 51.8 °F 33.8 °F 50% 29.75 in 10.0 mi SSW 4.6 mph - N/A   Clear
8:13 AM 51.8 °F 33.8 °F 50% 29.76 in 10.0 mi Calm Calm - N/A   Clear
8:33 AM 53.6 °F 35.6 °F 51% 29.75 in 10.0 mi South 8.1 mph - N/A   Clear
8:53 AM 53.6 °F 35.6 °F 51% 29.75 in 10.0 mi SSW 4.6 mph - N/A   Clear
9:54 AM 57.2 °F 35.6 °F 44% 29.75 in 10.0 mi WSW 6.9 mph - N/A   Clear
10:14 AM 57.2 °F 35.6 °F 44% 29.75 in 10.0 mi West 6.9 mph - N/A   Clear
10:34 AM 59.0 °F 35.6 °F 42% 29.74 in 10.0 mi West 9.2 mph - N/A   Clear
10:54 AM 60.8 °F 35.6 °F 39% 29.74 in 10.0 mi West 4.6 mph - N/A   Clear
11:14 AM 62.6 °F 35.6 °F 37% 29.74 in 10.0 mi WSW 5.8 mph - N/A   Clear
11:34 AM 64.4 °F 35.6 °F 34% 29.74 in 10.0 mi WSW 9.2 mph - N/A   Clear
11:54 AM 62.6 °F 35.6 °F 37% 29.74 in 10.0 mi WNW 6.9 mph - N/A   Clear
12:14 PM 64.4 °F 35.6 °F 34% 29.73 in 10.0 mi Calm Calm - N/A   Clear
12:34 PM 64.4 °F 35.6 °F 34% 29.72 in 10.0 mi West 3.5 mph - N/A   Clear
12:54 PM 66.2 °F 35.6 °F 32% 29.71 in 10.0 mi West 3.5 mph - N/A   Clear
1:14 PM 69.8 °F 37.4 °F 31% 29.71 in 10.0 mi Calm Calm - N/A   Clear
1:34 PM 69.8 °F 37.4 °F 31% 29.71 in 10.0 mi SW 8.1 mph - N/A   Clear
1:54 PM 68.0 °F 35.6 °F 30% 29.70 in 10.0 mi WSW 4.6 mph - N/A   Clear
2:14 PM 69.8 °F 35.6 °F 28% 29.69 in 10.0 mi WSW 5.8 mph - N/A   Clear
2:34 PM 69.8 °F 35.6 °F 28% 29.67 in 10.0 mi West 5.8 mph - N/A   Clear
2:54 PM 71.6 °F 35.6 °F 27% 29.67 in 10.0 mi SW 5.8 mph - N/A   Clear
3:14 PM 71.6 °F 35.6 °F 27% 29.66 in 10.0 mi SSW 5.8 mph - N/A   Clear
3:34 PM 69.8 °F 35.6 °F 28% 29.65 in 10.0 mi West 5.8 mph - N/A   Clear
3:54 PM 69.8 °F 33.8 °F 27% 29.65 in 10.0 mi NW 6.9 mph - N/A   Clear
4:14 PM 69.8 °F 33.8 °F 27% 29.65 in 10.0 mi WNW 8.1 mph - N/A   Clear
4:34 PM 71.6 °F 33.8 °F 25% 29.65 in 10.0 mi West 11.5 mph - N/A   Clear
4:54 PM 73.4 °F 33.8 °F 23% 29.64 in 10.0 mi West 6.9 mph 17.3 mph N/A   Clear
5:14 PM 73.4 °F 33.8 °F 23% 29.64 in 10.0 mi West 11.5 mph 19.6 mph N/A   Clear
5:34 PM 71.6 °F 35.6 °F 27% 29.64 in 10.0 mi WSW 9.2 mph - N/A   Clear
5:54 PM 71.6 °F 33.8 °F 25% 29.64 in 10.0 mi WSW 3.5 mph - N/A   Clear
6:15 PM 71.6 °F 35.6 °F 27% 29.63 in 10.0 mi SW 9.2 mph - N/A   Clear
6:35 PM 71.6 °F 35.6 °F 27% 29.64 in 10.0 mi WSW 6.9 mph - N/A   Clear
6:55 PM 69.8 °F 35.6 °F 28% 29.65 in 10.0 mi WSW 3.5 mph - N/A   Clear
7:15 PM 68.0 °F 35.6 °F 30% 29.66 in 10.0 mi Calm Calm - N/A   Clear
7:35 PM 68.0 °F 35.6 °F 30% 29.67 in 10.0 mi Calm Calm - N/A   Clear
7:55 PM 66.2 °F 35.6 °F 32% 29.67 in 10.0 mi WSW 3.5 mph - N/A   Clear
8:15 PM 62.6 °F 35.6 °F 37% 29.67 in 10.0 mi Calm Calm - N/A   Clear
8:35 PM 60.8 °F 35.6 °F 39% 29.67 in 10.0 mi NW 3.5 mph - N/A   Clear
8:55 PM 60.8 °F 35.6 °F 39% 29.68 in 10.0 mi NNW 4.6 mph - N/A   Clear
9:15 PM 59.0 °F 37.4 °F 45% 29.68 in 10.0 mi NNW 5.8 mph - N/A   Clear
9:35 PM 55.4 °F 37.4 °F 51% 29.68 in 10.0 mi NNW 5.8 mph - N/A   Clear
9:55 PM 57.2 °F 37.4 °F 48% 29.68 in 10.0 mi NNW 3.5 mph - N/A   Clear
10:15 PM 51.8 °F 37.4 °F 58% 29.68 in 10.0 mi Calm Calm - N/A   Clear
10:35 PM 51.8 °F 37.4 °F 58% 29.68 in 10.0 mi NE 5.8 mph - N/A   Clear
10:55 PM 53.6 °F 37.4 °F 54% 29.68 in 10.0 mi North 5.8 mph - N/A   Clear
11:15 PM 51.8 °F 37.4 °F 58% 29.68 in 10.0 mi Calm Calm - N/A   Clear
11:35 PM 50.0 °F 37.4 °F 62% 29.68 in 10.0 mi Calm Calm - N/A   Clear
11:55 PM 50.0 °F 35.6 °F 58% 29.68 in 10.0 mi Calm Calm - N/A   Clear